CAPE
nan nan nan nan nan nan nan nan nan nan nan nan nan nan nan nan nan nan nan 45 45 94 10 4 4 0 nan nan nan nan nan nan nan nan nan nan nan nan nan nan nan nan nan nan nan nan nan nan nan nan nan nan nan nan nan nan nan nan nan nan nan 3 7 3 3 nan nan nan nan nan nan nan nan nan nan nan nan nan nan nan nan nan nan nan nan 5
nan nan nan nan nan nan nan nan nan nan nan nan nan nan nan nan nan nan nan 3 3 103 75 5 5 nan 8 nan nan nan nan nan nan nan nan nan nan nan nan nan nan nan nan nan nan nan nan nan nan nan nan nan nan nan nan nan nan nan nan nan nan nan 6 15 15 9 0 2 nan nan nan nan nan nan nan nan nan nan nan nan nan nan nan nan nan 40
nan nan nan nan nan nan nan nan nan nan nan nan nan nan nan nan nan nan nan nan nan 45 114 38 38 nan 0 nan nan nan nan nan nan nan nan nan nan nan nan nan nan nan nan nan nan nan nan nan nan nan nan nan nan nan nan nan nan nan nan nan nan nan nan nan nan nan nan nan nan nan nan nan nan nan nan nan nan nan nan nan nan nan nan 4 4 90
nan nan nan nan nan nan nan nan nan nan nan nan nan nan nan nan nan nan nan nan nan 0 41 93 93 5 nan nan nan nan nan nan nan nan nan nan nan nan nan nan nan nan nan nan nan nan nan nan nan nan nan nan nan nan nan nan nan nan nan nan nan nan nan nan nan nan nan nan nan nan nan nan nan nan nan nan nan nan nan nan nan nan nan 37 37 153
nan nan nan nan nan nan nan nan nan nan nan nan nan nan nan nan nan nan nan nan nan 0 12 29 29 2 nan nan nan nan nan nan nan nan nan nan nan nan nan nan nan nan nan nan nan nan nan nan nan nan nan nan nan nan nan nan nan nan nan nan nan nan nan nan nan nan nan nan nan nan nan nan nan nan nan nan nan nan nan nan nan nan 12 66 66 143
nan nan nan nan nan nan nan nan nan nan nan nan nan nan nan nan nan nan nan nan nan nan 0 3 3 0 nan nan nan nan nan nan nan nan nan nan nan nan nan nan nan nan nan nan nan nan nan nan nan nan nan nan nan nan nan nan nan nan nan nan nan nan nan nan nan nan nan nan nan nan nan nan nan nan nan nan nan nan nan nan nan nan 16 85 85 147
nan nan nan nan nan nan nan nan nan nan nan nan nan nan nan nan nan nan nan nan nan nan nan 0 0 0 nan nan nan nan nan nan nan nan nan nan nan nan nan nan nan nan nan nan nan nan nan nan nan nan nan nan nan nan nan nan nan nan nan nan nan nan nan nan nan nan nan nan nan nan nan nan nan nan nan nan nan nan nan nan nan 0 16 66 66 125
nan nan nan nan nan nan nan nan nan nan nan nan nan nan nan nan nan nan nan nan nan nan nan 0 0 0 nan nan nan nan 0 nan nan nan nan nan nan nan nan nan nan nan nan nan nan nan nan nan nan nan nan nan nan nan nan nan nan nan nan nan nan nan nan nan nan nan nan nan nan nan nan nan nan nan nan nan nan nan nan nan nan 3 8 29 29 56
nan nan nan nan nan nan nan nan nan nan nan nan nan nan nan nan nan nan nan nan nan nan nan nan nan 0 nan nan nan nan nan nan nan nan nan nan nan nan nan nan nan nan nan nan nan nan nan nan nan nan nan nan nan nan nan nan nan nan nan nan nan nan nan nan nan nan nan nan nan nan nan nan nan nan nan nan nan nan nan nan nan 1 10 20 20 42
nan nan nan nan nan nan nan nan nan nan nan nan nan nan nan nan nan nan nan nan nan nan nan nan nan nan nan nan nan nan nan nan nan nan nan nan nan nan nan nan nan nan nan nan nan nan nan nan nan nan nan nan nan nan nan nan nan nan nan nan nan nan nan nan nan nan nan nan nan nan nan nan nan nan nan nan nan nan nan nan nan nan nan 12 12 27
nan nan nan nan nan nan nan nan nan nan nan nan nan nan nan nan nan nan nan nan nan nan nan nan nan nan 0 0 nan nan nan nan nan nan nan nan nan nan nan nan nan nan nan nan nan nan nan nan nan nan nan nan nan nan nan nan nan nan nan nan nan nan nan nan nan nan nan nan nan nan nan nan nan nan nan nan nan nan nan nan nan nan nan nan nan 8
nan nan nan nan nan nan nan nan nan nan nan nan nan nan nan nan nan nan nan nan nan nan nan nan nan nan nan nan nan nan nan nan nan nan nan nan nan nan nan nan nan nan nan nan nan nan nan nan nan nan nan nan nan nan nan nan nan nan nan nan nan nan nan nan nan nan nan nan nan nan nan nan nan nan nan nan nan nan nan nan nan nan nan nan nan nan
nan nan nan nan nan nan nan nan nan nan nan nan nan nan nan nan nan nan nan nan nan nan nan nan nan nan nan nan 0 0 nan nan nan nan nan nan nan nan nan nan nan nan nan nan nan nan 0 0 0 nan nan nan nan nan nan nan nan nan nan nan nan nan nan nan nan nan nan nan nan nan nan nan nan nan nan nan nan nan nan nan nan nan nan nan nan nan
nan nan nan nan nan nan nan nan nan nan nan nan nan nan nan nan nan nan nan nan nan nan nan nan nan nan nan nan nan nan nan nan nan nan nan nan nan nan nan nan nan nan nan nan nan nan nan nan nan nan nan nan nan nan nan nan nan nan nan nan nan nan nan nan nan nan nan nan nan nan nan nan nan nan nan nan nan nan nan nan nan nan nan nan nan nan
nan nan nan nan nan nan nan nan nan nan nan nan nan nan nan nan nan nan nan nan nan nan nan nan nan nan nan nan nan nan nan nan nan nan nan nan nan nan nan nan nan nan nan nan nan nan nan nan nan nan nan nan nan nan nan nan nan nan nan nan nan nan nan nan nan nan nan nan nan nan nan nan nan nan nan nan nan nan nan nan nan nan nan nan nan nan
nan nan nan nan nan nan nan nan nan nan nan nan nan nan nan nan nan nan nan nan nan nan nan nan nan nan nan nan nan nan nan nan nan nan nan nan nan nan nan nan nan nan nan nan nan nan nan nan nan nan nan nan nan nan nan nan nan nan nan nan nan nan nan nan nan nan nan nan nan nan nan nan nan nan nan nan nan nan nan nan nan nan nan nan nan nan
nan nan nan nan nan nan nan nan nan nan nan nan nan nan nan nan nan nan nan nan nan nan nan nan nan nan nan nan nan nan nan nan nan nan nan nan nan nan nan nan nan nan nan nan nan nan nan nan nan nan nan nan nan nan nan nan nan nan nan nan nan nan nan nan nan nan nan nan nan nan nan nan nan nan nan nan nan nan nan nan nan nan nan nan nan nan
nan nan nan nan nan nan nan nan nan nan nan nan nan nan nan nan nan nan nan nan nan nan nan nan nan nan nan nan nan nan nan nan nan nan nan nan nan nan nan nan nan nan nan nan nan nan nan nan nan nan nan 0 nan nan nan 0 0 nan nan nan nan nan nan nan nan nan nan nan nan nan nan nan nan nan nan nan nan nan nan nan nan nan nan nan nan nan
nan nan nan nan nan nan nan nan nan nan nan nan nan nan nan nan nan nan nan nan nan nan nan nan nan nan nan nan nan nan nan nan nan nan nan nan nan nan nan nan nan nan nan nan nan nan nan nan nan nan 1 0 0 0 0 0 0 0 0 nan nan nan nan 0 0 0 0 0 0 0 0 0 0 0 nan nan nan nan 0 0 0 0 1 0 0 0
nan nan nan nan nan nan nan nan nan nan nan nan nan nan nan nan nan nan nan nan nan nan nan nan nan nan nan nan nan nan nan nan nan nan nan nan nan nan nan nan nan nan nan nan nan nan nan nan nan nan 0 1 1 1 2 2 2 2 0 0 0 0 0 0 0 0 0 0 0 0 0 nan 0 0 nan nan nan nan 0 0 0 1 0 0 0 0
nan nan nan nan nan nan nan nan nan nan nan nan nan nan nan nan nan nan nan nan nan nan nan nan nan nan nan nan nan nan nan nan nan nan nan nan nan nan nan nan nan nan nan nan nan nan nan nan nan nan 0 2 2 2 3 2 2 2 1 1 1 1 0 0 0 0 0 1 0 0 0 0 0 0 0 nan nan nan 0 0 0 0 0 1 1 0
nan nan nan nan nan nan nan nan nan nan nan nan nan nan nan nan nan nan nan nan nan nan nan nan nan nan nan nan nan nan nan nan nan nan nan nan nan nan nan nan nan nan nan nan nan nan nan nan nan nan 6 6 4 4 4 4 4 4 3 2 2 2 2 1 1 1 1 1 1 1 1 1 1 1 0 0 0 0 0 0 0 1 0 0 0 0
nan nan nan nan nan nan nan nan nan nan nan nan nan nan nan nan nan nan nan nan nan nan nan nan nan nan nan nan nan nan nan nan nan nan nan nan nan nan nan nan nan nan nan nan nan nan nan nan nan nan 9 9 6 6 5 5 5 5 4 4 4 3 3 3 3 2 2 2 2 2 2 2 1 1 1 1 1 1 1 1 1 1 1 0 0 0
nan nan nan nan nan nan nan nan nan nan nan nan nan nan nan nan nan nan nan nan nan nan nan nan nan nan nan nan nan nan nan nan nan nan nan nan nan nan nan nan nan nan nan nan nan nan nan nan nan nan 3 9 9 9 7 6 6 5 5 5 5 4 4 4 4 4 3 3 3 3 3 3 2 2 2 2 2 2 2 1 1 1 1 1 1 0
nan nan nan nan nan nan nan nan nan nan nan nan nan nan nan nan nan nan nan nan nan nan nan nan nan nan nan nan nan nan nan nan nan nan nan nan nan nan nan nan nan nan nan nan nan nan nan nan nan nan nan 3 9 9 9 8 8 7 7 6 6 6 6 6 6 5 5 4 4 4 4 4 3 3 3 3 2 2 2 2 2 2 2 2 2 1
nan nan nan nan nan 1 1 0 0 0 nan nan nan nan nan nan nan nan nan nan nan nan nan nan nan nan nan nan nan nan nan nan nan nan nan nan nan nan nan nan nan nan nan nan nan nan nan nan nan nan nan nan 16 16 13 11 11 9 8 8 8 8 7 8 8 7 7 6 6 6 6 5 5 5 5 4 4 4 3 3 3 2 2 1 1 2
1 1 3 5 5 5 4 3 3 3 2 1 nan nan nan nan nan nan nan nan nan nan nan nan nan nan nan nan nan nan nan nan nan nan nan nan nan nan nan nan nan nan nan nan nan nan nan nan nan nan nan nan 15 15 18 15 15 12 12 10 10 10 10 10 10 9 8 8 7 7 7 7 6 6 5 5 4 4 3 2 2 2 1 1 1 4
4 5 5 5 5 5 5 4 3 3 3 3 3 3 nan nan nan nan nan nan nan nan nan nan nan nan nan nan nan nan nan nan nan nan nan nan nan nan nan nan nan nan nan nan nan nan 1 nan nan nan nan nan nan nan 16 17 17 16 15 13 13 13 12 11 11 11 10 10 9 9 8 7 7 7 6 5 5 5 3 2 2 1 1 nan nan nan
5 5 7 6 6 6 6 6 5 5 4 5 4 4 nan nan nan nan nan nan nan nan nan nan nan nan nan nan nan nan nan nan nan nan nan nan nan nan nan nan nan nan nan nan nan nan nan nan nan nan nan nan nan nan 2 19 19 17 18 16 16 15 14 13 13 13 13 11 11 11 10 9 8 8 7 6 4 4 3 2 2 2 1 nan nan nan
nan 1 4 6 6 8 6 4 7 7 7 8 6 6 nan nan nan nan nan nan nan nan nan nan nan nan nan nan nan nan nan nan nan nan nan nan nan nan nan nan nan nan nan nan nan nan nan nan nan nan nan nan nan nan nan 0 0 7 14 20 20 17 15 14 14 14 15 13 13 13 12 12 9 9 8 5 4 4 3 2 2 1 nan nan nan nan
nan nan nan nan nan nan nan nan 4 4 11 10 5 5 nan nan nan nan nan nan nan nan nan nan nan nan nan nan nan nan nan nan nan nan nan nan nan nan nan nan nan nan nan nan nan nan nan nan nan nan nan nan nan nan nan nan nan nan nan 6 6 15 16 12 12 14 16 15 16 16 15 14 10 10 8 6 4 4 3 2 2 1 nan nan nan nan
nan nan nan nan nan nan nan nan nan nan nan nan nan nan nan nan nan nan nan nan nan nan nan nan nan nan nan nan nan nan nan nan nan nan nan nan nan nan nan nan nan nan nan nan nan nan nan nan nan nan nan nan nan nan nan nan nan nan nan nan nan nan 7 8 8 11 10 18 17 17 17 14 13 13 13 10 7 7 4 2 2 1 nan nan nan nan
nan nan nan nan nan nan nan nan nan nan nan nan nan nan nan nan nan nan nan nan nan nan nan nan nan nan nan nan nan nan nan nan nan nan nan nan nan nan nan nan nan nan nan nan nan nan nan nan nan nan nan nan nan nan nan nan nan nan nan nan nan nan 1 2 2 1 3 4 5 5 13 14 13 13 13 11 9 9 6 2 2 0 nan nan nan nan
nan nan nan nan nan nan nan nan nan nan nan nan nan nan nan nan nan nan nan nan nan nan nan nan nan nan nan nan nan nan nan nan 0 0 nan nan nan nan nan nan nan nan nan nan nan nan nan nan nan nan nan nan nan nan nan nan nan nan nan nan nan nan nan 0 0 0 0 nan nan nan nan 0 12 12 11 10 10 10 7 2 2 0 nan nan nan nan
nan nan nan nan nan nan nan nan nan nan nan nan nan nan nan nan nan nan nan nan nan nan nan nan nan nan nan nan nan nan nan nan nan nan nan nan nan nan nan nan nan nan nan nan nan nan nan nan nan nan nan nan nan nan nan nan nan nan nan nan nan nan nan nan nan nan nan nan nan nan nan nan nan nan 3 8 9 9 7 4 4 0 nan nan nan nan
nan nan nan nan nan nan nan nan nan nan nan nan nan nan nan nan nan nan nan nan nan nan nan nan nan nan nan nan nan nan nan nan nan nan nan nan nan nan nan nan nan nan nan nan nan nan nan nan nan nan nan nan nan nan nan nan nan nan nan nan nan nan nan nan nan nan nan nan nan nan nan nan nan nan nan 3 4 4 3 3 3 2 nan nan nan nan
nan nan nan nan nan nan nan nan nan nan nan nan nan nan nan nan nan nan nan nan nan nan nan nan nan nan nan nan nan nan nan nan nan nan nan nan nan nan nan nan nan nan nan nan nan nan nan nan nan nan nan nan nan nan nan nan nan nan nan nan nan nan nan nan nan nan nan nan nan nan nan nan nan nan nan nan nan nan nan 1 1 0 1 0 0 nan
nan nan nan nan nan nan nan nan nan nan nan nan nan nan nan nan nan nan nan nan nan nan nan nan nan nan 0 0 nan nan nan nan nan nan nan nan nan nan nan nan nan nan nan nan nan nan nan nan nan nan nan nan nan nan nan nan nan nan nan nan nan nan nan nan nan nan nan nan nan nan nan nan nan nan nan nan nan nan nan nan nan nan nan nan nan 0
nan nan nan nan nan nan nan nan nan nan nan nan nan nan nan nan nan nan nan nan nan nan nan nan nan nan nan nan 0 0 nan nan nan nan nan nan nan nan nan nan nan nan nan nan nan nan nan nan nan nan nan nan nan nan nan nan nan nan nan nan nan nan nan nan nan nan nan nan nan nan nan nan nan nan nan nan nan nan nan nan nan nan nan nan nan nan
nan nan nan nan nan nan nan nan nan nan nan nan nan nan nan nan nan nan nan nan nan nan nan nan nan nan nan nan nan nan nan nan nan nan nan nan nan nan nan nan nan nan nan nan nan nan nan nan nan nan nan nan nan nan nan nan nan nan nan nan nan nan nan nan nan nan nan nan nan nan nan nan nan nan nan nan nan nan nan nan nan nan nan nan nan nan
nan nan nan nan nan nan nan nan nan nan nan nan nan nan nan nan nan nan nan nan nan nan nan nan nan nan nan nan nan nan nan nan nan nan nan nan nan nan nan nan nan nan nan nan nan nan nan nan nan nan nan nan nan nan nan nan nan 0 nan nan nan nan nan nan nan nan nan nan nan nan nan nan nan nan nan nan nan nan nan nan nan nan nan nan nan nan
nan nan nan nan nan nan nan nan nan nan nan nan nan nan nan nan nan nan nan nan nan nan nan nan nan nan nan nan nan nan nan nan nan nan nan nan nan nan nan nan nan nan nan nan nan nan nan nan nan nan nan nan nan nan nan nan nan 0 nan nan nan nan nan nan nan nan nan nan nan nan nan nan nan nan nan nan nan nan nan nan nan nan nan nan nan nan
nan nan nan nan nan nan nan nan nan nan nan nan nan nan nan nan nan nan nan nan nan nan nan nan nan nan nan nan nan nan nan nan nan nan nan nan nan nan nan nan nan nan nan nan nan nan nan nan nan nan nan nan nan nan nan nan nan nan nan nan nan nan nan nan nan nan nan nan nan nan nan nan nan nan nan nan nan nan nan nan nan nan nan nan nan nan
nan nan nan nan nan nan nan nan nan nan nan nan nan nan nan nan nan nan nan nan nan nan nan nan nan nan nan nan nan nan nan nan nan nan nan nan nan nan nan nan nan nan nan nan nan nan nan nan nan nan nan nan nan nan nan nan nan nan nan nan nan nan nan nan nan nan nan nan nan nan nan nan nan nan nan nan nan nan nan nan nan nan nan nan nan nan
nan nan nan nan nan nan nan nan nan nan nan nan nan nan nan nan nan nan nan nan nan nan nan nan nan nan nan nan nan nan nan nan nan nan nan nan nan nan nan nan nan nan nan nan nan nan nan nan nan nan nan nan nan nan nan nan nan nan nan nan nan nan nan nan nan nan nan nan nan nan nan nan nan nan nan nan nan nan nan nan nan nan nan nan nan nan
nan nan nan nan nan nan nan nan nan nan nan nan nan nan nan nan nan nan nan nan nan nan nan nan nan nan nan nan nan nan nan nan nan nan nan nan nan nan nan nan nan nan nan nan nan nan nan nan nan nan nan nan nan nan nan nan nan nan nan nan nan nan nan nan nan nan nan nan nan nan nan nan nan nan nan nan nan nan nan nan nan nan nan nan nan nan
nan nan nan nan nan nan nan nan nan nan nan nan nan nan nan nan nan nan nan nan nan nan nan nan nan nan nan nan nan nan nan nan nan nan nan nan nan nan nan nan nan nan nan nan nan nan nan nan nan nan nan nan nan nan nan nan nan nan nan nan nan nan nan nan nan nan nan nan nan nan nan nan nan nan nan nan nan nan nan nan nan nan nan nan nan nan
nan nan nan nan nan nan nan nan nan nan nan nan nan nan nan nan nan nan nan nan nan nan nan nan nan nan nan nan nan nan nan nan nan nan nan nan nan nan nan nan nan nan nan nan nan nan nan nan nan nan nan nan nan nan nan nan nan nan nan nan nan nan nan nan nan nan nan nan nan nan nan nan nan nan nan nan nan nan nan nan nan nan nan nan nan nan
nan nan nan nan nan nan nan nan nan nan nan nan nan nan nan nan nan nan nan nan nan nan nan nan nan nan nan nan nan nan nan nan nan nan nan nan nan nan nan nan nan nan nan nan nan nan nan nan nan nan nan nan nan nan nan nan nan nan nan nan nan nan nan nan nan nan nan nan nan nan nan nan nan nan nan nan nan nan nan nan nan nan nan nan nan nan
nan nan nan nan nan nan nan nan nan nan nan nan nan nan nan nan nan nan nan nan nan nan nan nan nan nan nan nan nan nan nan nan nan nan nan nan nan nan nan nan nan nan nan nan nan nan nan nan nan nan nan nan nan nan nan nan nan nan nan nan nan nan nan nan nan nan nan nan nan nan nan nan nan nan nan nan nan nan nan nan nan nan nan nan nan nan
nan nan nan nan nan nan nan nan nan nan nan nan nan nan nan nan nan nan nan nan nan nan nan nan nan nan nan nan nan nan nan nan nan nan nan nan nan nan nan nan nan nan nan nan nan nan nan nan nan nan nan 1 nan nan nan nan nan nan nan nan nan nan nan nan nan nan nan nan nan nan nan nan nan nan nan nan nan nan nan nan nan nan nan nan nan nan
CIN
nan nan nan nan nan nan nan nan nan nan nan nan nan nan nan nan nan nan nan -3 -3 -0 -1 -50 -50 -122 nan nan nan nan nan nan nan nan nan nan nan nan nan nan nan nan nan nan nan nan nan nan nan nan nan nan nan nan nan nan nan nan nan nan nan -149 -150 -177 -177 nan nan nan nan nan nan nan nan nan nan nan nan nan nan nan nan nan nan nan nan -22
nan nan nan nan nan nan nan nan nan nan nan nan nan nan nan nan nan nan nan -10 -10 -0 -0 -43 -43 nan -140 nan nan nan nan nan nan nan nan nan nan nan nan nan nan nan nan nan nan nan nan nan nan nan nan nan nan nan nan nan nan nan nan nan nan nan -132 -128 -128 -147 -181 -153 nan nan nan nan nan nan nan nan nan nan nan nan nan nan nan nan nan -14
nan nan nan nan nan nan nan nan nan nan nan nan nan nan nan nan nan nan nan nan nan -0 -0 -0 -0 nan -102 nan nan nan nan nan nan nan nan nan nan nan nan nan nan nan nan nan nan nan nan nan nan nan nan nan nan nan nan nan nan nan nan nan nan nan nan nan nan nan nan nan nan nan nan nan nan nan nan nan nan nan nan nan nan nan nan -20 -20 -0
nan nan nan nan nan nan nan nan nan nan nan nan nan nan nan nan nan nan nan nan nan -0 -0 -0 -0 -2 nan nan nan nan nan nan nan nan nan nan nan nan nan nan nan nan nan nan nan nan nan nan nan nan nan nan nan nan nan nan nan nan nan nan nan nan nan nan nan nan nan nan nan nan nan nan nan nan nan nan nan nan nan nan nan nan nan -0 -0 -0
nan nan nan nan nan nan nan nan nan nan nan nan nan nan nan nan nan nan nan nan nan -0 -0 -0 -0 -1 nan nan nan nan nan nan nan nan nan nan nan nan nan nan nan nan nan nan nan nan nan nan nan nan nan nan nan nan nan nan nan nan nan nan nan nan nan nan nan nan nan nan nan nan nan nan nan nan nan nan nan nan nan nan nan nan -21 -0 -0 -0
nan nan nan nan nan nan nan nan nan nan nan nan nan nan nan nan nan nan nan nan nan nan -0 -0 -0 -0 nan nan nan nan nan nan nan nan nan nan nan nan nan nan nan nan nan nan nan nan nan nan nan nan nan nan nan nan nan nan nan nan nan nan nan nan nan nan nan nan nan nan nan nan nan nan nan nan nan nan nan nan nan nan nan nan -20 -0 -0 -0
nan nan nan nan nan nan nan nan nan nan nan nan nan nan nan nan nan nan nan nan nan nan nan -0 -0 -0 nan nan nan nan nan nan nan nan nan nan nan nan nan nan nan nan nan nan nan nan nan nan nan nan nan nan nan nan nan nan nan nan nan nan nan nan nan nan nan nan nan nan nan nan nan nan nan nan nan nan nan nan nan nan nan -126 -56 -0 -0 -0
nan nan nan nan nan nan nan nan nan nan nan nan nan nan nan nan nan nan nan nan nan nan nan -0 -0 -0 nan nan nan nan -0 nan nan nan nan nan nan nan nan nan nan nan nan nan nan nan nan nan nan nan nan nan nan nan nan nan nan nan nan nan nan nan nan nan nan nan nan nan nan nan nan nan nan nan nan nan nan nan nan nan nan -114 -114 -70 -70 -2
nan nan nan nan nan nan nan nan nan nan nan nan nan nan nan nan nan nan nan nan nan nan nan nan nan -0 nan nan nan nan nan nan nan nan nan nan nan nan nan nan nan nan nan nan nan nan nan nan nan nan nan nan nan nan nan nan nan nan nan nan nan nan nan nan nan nan nan nan nan nan nan nan nan nan nan nan nan nan nan nan nan -132 -104 -90 -90 -1
nan nan nan nan nan nan nan nan nan nan nan nan nan nan nan nan nan nan nan nan nan nan nan nan nan nan nan nan nan nan nan nan nan nan nan nan nan nan nan nan nan nan nan nan nan nan nan nan nan nan nan nan nan nan nan nan nan nan nan nan nan nan nan nan nan nan nan nan nan nan nan nan nan nan nan nan nan nan nan nan nan nan nan -100 -100 -71
nan nan nan nan nan nan nan nan nan nan nan nan nan nan nan nan nan nan nan nan nan nan nan nan nan nan -0 -0 nan nan nan nan nan nan nan nan nan nan nan nan nan nan nan nan nan nan nan nan nan nan nan nan nan nan nan nan nan nan nan nan nan nan nan nan nan nan nan nan nan nan nan nan nan nan nan nan nan nan nan nan nan nan nan nan nan -98
nan nan nan nan nan nan nan nan nan nan nan nan nan nan nan nan nan nan nan nan nan nan nan nan nan nan nan nan nan nan nan nan nan nan nan nan nan nan nan nan nan nan nan nan nan nan nan nan nan nan nan nan nan nan nan nan nan nan nan nan nan nan nan nan nan nan nan nan nan nan nan nan nan nan nan nan nan nan nan nan nan nan nan nan nan nan
nan nan nan nan nan nan nan nan nan nan nan nan nan nan nan nan nan nan nan nan nan nan nan nan nan nan nan nan -0 -0 nan nan nan nan nan nan nan nan nan nan nan nan nan nan nan nan -0 -0 -0 nan nan nan nan nan nan nan nan nan nan nan nan nan nan nan nan nan nan nan nan nan nan nan nan nan nan nan nan nan nan nan nan nan nan nan nan nan
nan nan nan nan nan nan nan nan nan nan nan nan nan nan nan nan nan nan nan nan nan nan nan nan nan nan nan nan nan nan nan nan nan nan nan nan nan nan nan nan nan nan nan nan nan nan nan nan nan nan nan nan nan nan nan nan nan nan nan nan nan nan nan nan nan nan nan nan nan nan nan nan nan nan nan nan nan nan nan nan nan nan nan nan nan nan
nan nan nan nan nan nan nan nan nan nan nan nan nan nan nan nan nan nan nan nan nan nan nan nan nan nan nan nan nan nan nan nan nan nan nan nan nan nan nan nan nan nan nan nan nan nan nan nan nan nan nan nan nan nan nan nan nan nan nan nan nan nan nan nan nan nan nan nan nan nan nan nan nan nan nan nan nan nan nan nan nan nan nan nan nan nan
nan nan nan nan nan nan nan nan nan nan nan nan nan nan nan nan nan nan nan nan nan nan nan nan nan nan nan nan nan nan nan nan nan nan nan nan nan nan nan nan nan nan nan nan nan nan nan nan nan nan nan nan nan nan nan nan nan nan nan nan nan nan nan nan nan nan nan nan nan nan nan nan nan nan nan nan nan nan nan nan nan nan nan nan nan nan
nan nan nan nan nan nan nan nan nan nan nan nan nan nan nan nan nan nan nan nan nan nan nan nan nan nan nan nan nan nan nan nan nan nan nan nan nan nan nan nan nan nan nan nan nan nan nan nan nan nan nan nan nan nan nan nan nan nan nan nan nan nan nan nan nan nan nan nan nan nan nan nan nan nan nan nan nan nan nan nan nan nan nan nan nan nan
nan nan nan nan nan nan nan nan nan nan nan nan nan nan nan nan nan nan nan nan nan nan nan nan nan nan nan nan nan nan nan nan nan nan nan nan nan nan nan nan nan nan nan nan nan nan nan nan nan nan nan -0 nan nan nan -0 -0 nan nan nan nan nan nan nan nan nan nan nan nan nan nan nan nan nan nan nan nan nan nan nan nan nan nan nan nan nan
nan nan nan nan nan nan nan nan nan nan nan nan nan nan nan nan nan nan nan nan nan nan nan nan nan nan nan nan nan nan nan nan nan nan nan nan nan nan nan nan nan nan nan nan nan nan nan nan nan nan -0 -0 -0 -0 -0 -0 -0 -0 -0 nan nan nan nan -0 -0 -0 -0 -0 -0 -0 -0 -0 -0 -0 nan nan nan nan -0 -0 -0 -0 -0 -0 -0 -0
nan nan nan nan nan nan nan nan nan nan nan nan nan nan nan nan nan nan nan nan nan nan nan nan nan nan nan nan nan nan nan nan nan nan nan nan nan nan nan nan nan nan nan nan nan nan nan nan nan nan -0 -0 -0 -0 -0 -0 -0 -0 -0 -0 -0 -0 -0 -0 -0 -0 -0 -0 -0 -0 -0 nan -0 -0 nan nan nan nan -0 -0 -0 -0 -0 -0 -0 -0
nan nan nan nan nan nan nan nan nan nan nan nan nan nan nan nan nan nan nan nan nan nan nan nan nan nan nan nan nan nan nan nan nan nan nan nan nan nan nan nan nan nan nan nan nan nan nan nan nan nan -0 -0 -0 -0 -0 -0 -0 -0 -0 -0 -0 -0 -0 -0 -0 -0 -0 -0 -0 -0 -0 -0 -0 -0 -0 nan nan nan -0 -0 -0 -0 -0 -0 -0 -0
nan nan nan nan nan nan nan nan nan nan nan nan nan nan nan nan nan nan nan nan nan nan nan nan nan nan nan nan nan nan nan nan nan nan nan nan nan nan nan nan nan nan nan nan nan nan nan nan nan nan -0 -0 -0 -0 -0 -0 -0 -0 -0 -0 -0 -0 -0 -0 -0 -0 -0 -0 -0 -0 -0 -0 -0 -0 -0 -0 -0 -0 -0 -0 -0 -0 -0 -0 -0 -0
nan nan nan nan nan nan nan nan nan nan nan nan nan nan nan nan nan nan nan nan nan nan nan nan nan nan nan nan nan nan nan nan nan nan nan nan nan nan nan nan nan nan nan nan nan nan nan nan nan nan -0 -0 -0 -0 -0 -0 -0 -0 -0 -0 -0 -0 -0 -0 -0 -0 -0 -0 -0 -0 -0 -0 -0 -0 -0 -0 -0 -0 -0 -0 -0 -0 -0 -0 -0 -0
nan nan nan nan nan nan nan nan nan nan nan nan nan nan nan nan nan nan nan nan nan nan nan nan nan nan nan nan nan nan nan nan nan nan nan nan nan nan nan nan nan nan nan nan nan nan nan nan nan nan -1 -0 -0 -0 -0 -0 -0 -0 -0 -0 -0 -0 -0 -0 -0 -0 -0 -0 -0 -0 -0 -0 -0 -0 -0 -0 -0 -0 -0 -0 -0 -0 -0 -0 -0 -0
nan nan nan nan nan nan nan nan nan nan nan nan nan nan nan nan nan nan nan nan nan nan nan nan nan nan nan nan nan nan nan nan nan nan nan nan nan nan nan nan nan nan nan nan nan nan nan nan nan nan nan -1 -0 -0 -0 -0 -0 -0 -0 -0 -0 -0 -0 -0 -0 -0 -0 -0 -0 -0 -0 -0 -0 -0 -0 -0 -0 -0 -0 -0 -0 -0 -0 -0 -0 -0
nan nan nan nan nan -0 -0 -0 -0 -0 nan nan nan nan nan nan nan nan nan nan nan nan nan nan nan nan nan nan nan nan nan nan nan nan nan nan nan nan nan nan nan nan nan nan nan nan nan nan nan nan nan nan -0 -0 -0 -0 -0 -0 -0 -0 -0 -0 -0 -0 -0 -0 -0 -0 -0 -0 -0 -0 -0 -0 -0 -0 -0 -0 -0 -0 -0 -0 -0 -0 -0 -0
-0 -0 -0 -0 -0 -0 -0 -0 -0 -0 -0 -0 nan nan nan nan nan nan nan nan nan nan nan nan nan nan nan nan nan nan nan nan nan nan nan nan nan nan nan nan nan nan nan nan nan nan nan nan nan nan nan nan -0 -0 -0 -0 -0 -0 -0 -0 -0 -0 -0 -0 -0 -0 -0 -0 -0 -0 -0 -0 -0 -0 -0 -0 -0 -0 -0 -0 -0 -0 -0 -0 -0 -0
-0 -0 -0 -0 -0 -0 -0 -0 -0 -0 -0 -0 -0 -0 nan nan nan nan nan nan nan nan nan nan nan nan nan nan nan nan nan nan nan nan nan nan nan nan nan nan nan nan nan nan nan nan -0 nan nan nan nan nan nan nan -0 -0 -0 -0 -0 -0 -0 -0 -0 -0 -0 -0 -0 -0 -0 -0 -0 -0 -0 -0 -0 -0 -0 -0 -0 -0 -0 -0 -0 nan nan nan
-0 -0 -0 -0 -0 -0 -0 -0 -0 -0 -0 -0 -0 -0 nan nan nan nan nan nan nan nan nan nan nan nan nan nan nan nan nan nan nan nan nan nan nan nan nan nan nan nan nan nan nan nan nan nan nan nan nan nan nan nan -0 -0 -0 -0 -0 -0 -0 -0 -0 -0 -0 -0 -0 -0 -0 -0 -0 -0 -0 -0 -0 -0 -0 -0 -0 -0 -0 -0 -0 nan nan nan
nan -0 -0 -0 -0 -0 -0 -0 -0 -0 -0 -0 -0 -0 nan nan nan nan nan nan nan nan nan nan nan nan nan nan nan nan nan nan nan nan nan nan nan nan nan nan nan nan nan nan nan nan nan nan nan nan nan nan nan nan nan -0 -0 -0 -0 -0 -0 -0 -0 -0 -0 -0 -0 -0 -0 -0 -0 -0 -0 -0 -0 -0 -0 -0 -0 -0 -0 -0 nan nan nan nan
nan nan nan nan nan nan nan nan -0 -0 -0 -0 -0 -0 nan nan nan nan nan nan nan nan nan nan nan nan nan nan nan nan nan nan nan nan nan nan nan nan nan nan nan nan nan nan nan nan nan nan nan nan nan nan nan nan nan nan nan nan nan -0 -0 -0 -0 -0 -0 -0 -0 -0 -0 -0 -0 -0 -0 -0 -0 -0 -0 -0 -0 -0 -0 -0 nan nan nan nan
nan nan nan nan nan nan nan nan nan nan nan nan nan nan nan nan nan nan nan nan nan nan nan nan nan nan nan nan nan nan nan nan nan nan nan nan nan nan nan nan nan nan nan nan nan nan nan nan nan nan nan nan nan nan nan nan nan nan nan nan nan nan -0 -0 -0 -0 -0 -0 -0 -0 -0 -0 -0 -0 -0 -0 -0 -0 -0 -0 -0 -0 nan nan nan nan
nan nan nan nan nan nan nan nan nan nan nan nan nan nan nan nan nan nan nan nan nan nan nan nan nan nan nan nan nan nan nan nan nan nan nan nan nan nan nan nan nan nan nan nan nan nan nan nan nan nan nan nan nan nan nan nan nan nan nan nan nan nan -0 -0 -0 -0 -0 -0 -0 -0 -0 -0 -0 -0 -0 -0 -0 -0 -0 -0 -0 -0 nan nan nan nan
nan nan nan nan nan nan nan nan nan nan nan nan nan nan nan nan nan nan nan nan nan nan nan nan nan nan nan nan nan nan nan nan -1 -1 nan nan nan nan nan nan nan nan nan nan nan nan nan nan nan nan nan nan nan nan nan nan nan nan nan nan nan nan nan -0 -0 -0 -0 nan nan nan nan -0 -0 -0 -0 -0 -0 -0 -0 -0 -0 -0 nan nan nan nan
nan nan nan nan nan nan nan nan nan nan nan nan nan nan nan nan nan nan nan nan nan nan nan nan nan nan nan nan nan nan nan nan nan nan nan nan nan nan nan nan nan nan nan nan nan nan nan nan nan nan nan nan nan nan nan nan nan nan nan nan nan nan nan nan nan nan nan nan nan nan nan nan nan nan -0 -0 -0 -0 -0 -0 -0 -0 nan nan nan nan
nan nan nan nan nan nan nan nan nan nan nan nan nan nan nan nan nan nan nan nan nan nan nan nan nan nan nan nan nan nan nan nan nan nan nan nan nan nan nan nan nan nan nan nan nan nan nan nan nan nan nan nan nan nan nan nan nan nan nan nan nan nan nan nan nan nan nan nan nan nan nan nan nan nan nan -0 -0 -0 -0 -0 -0 -0 nan nan nan nan
nan nan nan nan nan nan nan nan nan nan nan nan nan nan nan nan nan nan nan nan nan nan nan nan nan nan nan nan nan nan nan nan nan nan nan nan nan nan nan nan nan nan nan nan nan nan nan nan nan nan nan nan nan nan nan nan nan nan nan nan nan nan nan nan nan nan nan nan nan nan nan nan nan nan nan nan nan nan nan -0 -0 -0 -0 -0 -0 nan
nan nan nan nan nan nan nan nan nan nan nan nan nan nan nan nan nan nan nan nan nan nan nan nan nan nan -0 -0 nan nan nan nan nan nan nan nan nan nan nan nan nan nan nan nan nan nan nan nan nan nan nan nan nan nan nan nan nan nan nan nan nan nan nan nan nan nan nan nan nan nan nan nan nan nan nan nan nan nan nan nan nan nan nan nan nan -0
nan nan nan nan nan nan nan nan nan nan nan nan nan nan nan nan nan nan nan nan nan nan nan nan nan nan nan nan -0 -0 nan nan nan nan nan nan nan nan nan nan nan nan nan nan nan nan nan nan nan nan nan nan nan nan nan nan nan nan nan nan nan nan nan nan nan nan nan nan nan nan nan nan nan nan nan nan nan nan nan nan nan nan nan nan nan nan
nan nan nan nan nan nan nan nan nan nan nan nan nan nan nan nan nan nan nan nan nan nan nan nan nan nan nan nan nan nan nan nan nan nan nan nan nan nan nan nan nan nan nan nan nan nan nan nan nan nan nan nan nan nan nan nan nan nan nan nan nan nan nan nan nan nan nan nan nan nan nan nan nan nan nan nan nan nan nan nan nan nan nan nan nan nan
nan nan nan nan nan nan nan nan nan nan nan nan nan nan nan nan nan nan nan nan nan nan nan nan nan nan nan nan nan nan nan nan nan nan nan nan nan nan nan nan nan nan nan nan nan nan nan nan nan nan nan nan nan nan nan nan nan -0 nan nan nan nan nan nan nan nan nan nan nan nan nan nan nan nan nan nan nan nan nan nan nan nan nan nan nan nan
nan nan nan nan nan nan nan nan nan nan nan nan nan nan nan nan nan nan nan nan nan nan nan nan nan nan nan nan nan nan nan nan nan nan nan nan nan nan nan nan nan nan nan nan nan nan nan nan nan nan nan nan nan nan nan nan nan -0 nan nan nan nan nan nan nan nan nan nan nan nan nan nan nan nan nan nan nan nan nan nan nan nan nan nan nan nan
nan nan nan nan nan nan nan nan nan nan nan nan nan nan nan nan nan nan nan nan nan nan nan nan nan nan nan nan nan nan nan nan nan nan nan nan nan nan nan nan nan nan nan nan nan nan nan nan nan nan nan nan nan nan nan nan nan nan nan nan nan nan nan nan nan nan nan nan nan nan nan nan nan nan nan nan nan nan nan nan nan nan nan nan nan nan
nan nan nan nan nan nan nan nan nan nan nan nan nan nan nan nan nan nan nan nan nan nan nan nan nan nan nan nan nan nan nan nan nan nan nan nan nan nan nan nan nan nan nan nan nan nan nan nan nan nan nan nan nan nan nan nan nan nan nan nan nan nan nan nan nan nan nan nan nan nan nan nan nan nan nan nan nan nan nan nan nan nan nan nan nan nan
nan nan nan nan nan nan nan nan nan nan nan nan nan nan nan nan nan nan nan nan nan nan nan nan nan nan nan nan nan nan nan nan nan nan nan nan nan nan nan nan nan nan nan nan nan nan nan nan nan nan nan nan nan nan nan nan nan nan nan nan nan nan nan nan nan nan nan nan nan nan nan nan nan nan nan nan nan nan nan nan nan nan nan nan nan nan
nan nan nan nan nan nan nan nan nan nan nan nan nan nan nan nan nan nan nan nan nan nan nan nan nan nan nan nan nan nan nan nan nan nan nan nan nan nan nan nan nan nan nan nan nan nan nan nan nan nan nan nan nan nan nan nan nan nan nan nan nan nan nan nan nan nan nan nan nan nan nan nan nan nan nan nan nan nan nan nan nan nan nan nan nan nan
nan nan nan nan nan nan nan nan nan nan nan nan nan nan nan nan nan nan nan nan nan nan nan nan nan nan nan nan nan nan nan nan nan nan nan nan nan nan nan nan nan nan nan nan nan nan nan nan nan nan nan nan nan nan nan nan nan nan nan nan nan nan nan nan nan nan nan nan nan nan nan nan nan nan nan nan nan nan nan nan nan nan nan nan nan nan
nan nan nan nan nan nan nan nan nan nan nan nan nan nan nan nan nan nan nan nan nan nan nan nan nan nan nan nan nan nan nan nan nan nan nan nan nan nan nan nan nan nan nan nan nan nan nan nan nan nan nan nan nan nan nan nan nan nan nan nan nan nan nan nan nan nan nan nan nan nan nan nan nan nan nan nan nan nan nan nan nan nan nan nan nan nan
nan nan nan nan nan nan nan nan nan nan nan nan nan nan nan nan nan nan nan nan nan nan nan nan nan nan nan nan nan nan nan nan nan nan nan nan nan nan nan nan nan nan nan nan nan nan nan nan nan nan nan nan nan nan nan nan nan nan nan nan nan nan nan nan nan nan nan nan nan nan nan nan nan nan nan nan nan nan nan nan nan nan nan nan nan nan
nan nan nan nan nan nan nan nan nan nan nan nan nan nan nan nan nan nan nan nan nan nan nan nan nan nan nan nan nan nan nan nan nan nan nan nan nan nan nan nan nan nan nan nan nan nan nan nan nan nan nan nan nan nan nan nan nan nan nan nan nan nan nan nan nan nan nan nan nan nan nan nan nan nan nan nan nan nan nan nan nan nan nan nan nan nan
nan nan nan nan nan nan nan nan nan nan nan nan nan nan nan nan nan nan nan nan nan nan nan nan nan nan nan nan nan nan nan nan nan nan nan nan nan nan nan nan nan nan nan nan nan nan nan nan nan nan nan -0 nan nan nan nan nan nan nan nan nan nan nan nan nan nan nan nan nan nan nan nan nan nan nan nan nan nan nan nan nan nan nan nan nan nan
Wind_Speed
4 4 3 4 4 4 3 3 2 2 4 4 4 5 6 7 8 10 12 14 15 17 20 18 17 18 21 29 34 36 36 35 33 33 32 32 31 31 31 30 30 30 29 29 29 29 28 28 26 25 24 24 24 25 25 26 26 26 26 27 27 26 26 25 25 24 24 24 24 23 23 22 21 21 20 20 19 19 20 21 21 21 20 20 20 21
3 3 3 3 4 4 3 3 3 2 3 3 3 3 4 6 7 7 9 11 13 15 17 17 17 17 20 24 30 35 35 34 33 32 31 31 31 31 30 30 30 30 30 30 29 29 28 27 25 23 22 22 23 24 25 25 25 25 25 26 26 26 26 25 25 24 24 23 23 22 22 21 21 20 20 20 20 20 21 22 22 21 21 20 21 21
3 3 3 3 4 4 4 3 3 3 3 2 2 2 3 4 5 5 6 8 10 12 14 16 16 17 18 19 24 29 30 30 29 28 28 28 28 29 29 29 30 29 29 29 29 28 27 26 24 23 22 22 23 24 25 24 24 24 24 24 25 25 25 25 24 24 23 23 22 21 21 20 20 21 21 21 22 22 23 22 22 21 21 21 22 22
4 4 4 3 3 4 3 2 2 2 3 2 1 1 1 2 2 3 3 5 7 10 13 15 15 16 17 16 18 21 24 24 24 24 23 24 24 25 25 26 27 27 28 27 26 26 26 25 24 23 23 23 23 24 24 23 23 23 23 23 23 23 23 24 23 23 22 22 21 20 20 20 20 21 22 23 23 23 23 22 22 21 21 22 22 22
4 3 3 2 2 3 2 2 1 1 2 2 1 1 0 1 1 2 2 3 5 8 11 12 12 11 10 11 13 16 18 20 21 21 20 20 20 21 21 23 23 24 24 23 22 22 22 23 23 23 23 23 23 23 22 22 21 21 21 21 21 22 22 22 22 22 21 21 20 20 20 20 20 20 21 22 23 23 22 21 21 21 21 22 22 22
3 2 2 2 2 2 2 2 1 1 1 1 1 1 1 0 1 2 2 4 5 6 8 10 10 8 4 2 5 9 12 15 17 19 19 19 19 19 19 20 20 21 21 19 18 18 18 20 21 22 22 22 22 22 21 21 20 20 20 20 20 20 21 21 21 21 21 20 20 20 19 19 19 19 19 20 21 21 21 21 20 21 21 22 22 22
3 1 1 2 2 2 1 1 1 1 1 1 0 0 0 0 1 2 3 3 4 5 6 8 9 9 8 6 3 1 3 7 10 13 16 18 19 20 20 20 20 20 20 19 17 16 16 17 18 20 21 22 22 21 21 20 20 19 19 19 19 19 20 20 20 20 20 20 19 19 19 19 18 18 18 19 19 19 20 20 20 20 21 21 22 22
3 2 2 2 2 2 1 1 1 2 2 1 1 1 1 1 0 2 3 4 4 4 5 7 8 9 9 8 7 5 3 1 1 3 8 13 16 19 20 21 21 21 21 21 20 18 17 17 19 20 21 22 22 21 21 20 19 19 18 18 18 18 18 19 19 19 19 19 19 19 19 18 18 18 18 18 18 19 19 20 20 20 20 21 21 22
5 4 4 3 3 2 2 1 1 2 2 1 1 1 1 1 1 1 2 4 4 4 4 5 7 8 9 9 8 6 6 5 5 4 2 2 7 12 17 20 22 22 22 22 21 19 19 19 19 20 21 21 21 21 21 20 19 18 18 18 18 18 17 18 18 18 18 18 18 18 18 18 18 18 17 17 17 18 18 19 19 20 20 20 21 22
6 5 5 4 3 2 2 2 1 1 2 1 1 1 1 2 2 2 2 3 3 3 4 4 5 7 9 9 8 7 6 6 8 10 11 10 6 1 4 8 12 15 16 16 16 16 16 17 18 19 20 21 21 21 21 20 19 19 18 18 18 18 17 17 17 18 18 18 18 17 17 17 17 17 17 17 17 17 18 18 19 19 20 20 21 21
6 5 4 3 2 2 1 1 1 1 2 1 0 0 2 2 2 2 3 3 2 3 4 4 4 5 6 7 7 7 6 6 8 10 12 14 13 11 9 6 3 2 3 4 4 5 6 9 12 15 17 18 20 20 19 19 19 19 19 19 19 18 18 18 18 19 19 19 19 18 18 18 17 17 17 17 17 17 17 17 18 18 19 20 20 20
5 3 2 2 2 2 1 1 1 1 2 2 1 0 2 3 3 3 4 4 4 4 4 4 4 4 4 5 6 6 5 5 5 6 8 9 10 10 10 9 9 9 9 9 9 8 6 4 3 5 8 11 13 14 15 16 16 17 17 18 18 19 20 20 21 21 21 21 21 20 20 19 18 18 18 17 17 17 17 17 18 18 18 18 19 19
4 2 2 2 2 2 2 1 1 2 2 2 2 2 2 3 3 2 2 4 5 5 5 4 4 4 4 4 5 5 5 4 4 5 6 6 6 6 6 6 7 7 8 8 9 9 10 9 8 6 5 4 5 6 7 8 9 10 10 11 12 14 16 18 20 21 21 22 22 21 21 20 19 18 18 18 18 18 18 18 18 17 17 16 16 16
3 2 2 2 2 2 2 3 3 4 4 3 3 3 2 2 2 1 2 4 5 5 5 6 5 4 4 4 5 5 5 4 3 5 6 6 6 5 4 5 5 6 6 7 7 8 9 9 8 8 9 9 7 7 7 7 7 7 7 6 5 4 6 8 10 12 14 17 17 17 18 18 17 17 18 18 18 18 18 18 17 17 16 15 15 14
3 3 3 4 3 3 3 3 4 4 4 3 3 3 3 2 2 2 3 5 5 5 6 7 6 5 4 3 4 5 6 4 3 5 7 6 5 5 4 5 6 6 6 7 7 7 8 8 7 8 9 11 12 12 14 15 16 18 17 17 17 15 13 11 9 7 6 5 6 6 7 8 9 10 12 14 15 16 17 17 17 17 16 15 15 15
3 3 4 5 4 4 3 3 4 3 3 3 3 4 4 4 3 3 3 5 5 5 5 6 6 4 3 2 4 5 5 4 4 5 6 6 5 5 4 5 6 7 7 7 6 6 6 7 7 8 10 13 16 17 19 19 20 22 22 22 22 22 21 20 19 18 17 15 14 13 11 10 8 7 5 4 4 6 9 10 11 12 13 14 14 14
4 4 5 5 5 4 3 3 3 3 3 3 3 4 5 4 4 3 3 4 4 4 4 5 5 4 2 1 3 4 5 4 3 4 6 6 5 6 5 5 7 8 7 7 6 6 6 7 7 8 10 14 17 19 20 21 22 23 23 23 23 23 23 23 23 23 22 22 22 21 20 20 19 18 16 15 13 10 8 6 4 4 5 6 7 8
4 5 5 5 5 4 3 3 2 2 3 3 4 3 3 3 3 3 2 2 3 3 3 4 4 4 3 1 1 2 4 3 2 3 5 5 5 5 5 5 6 8 8 7 6 6 6 7 8 9 11 17 19 20 21 22 22 23 23 23 24 24 24 24 24 24 24 24 24 24 24 24 23 23 23 22 22 21 20 19 17 16 14 14 12 11
5 5 5 5 4 3 3 3 4 4 4 4 4 4 3 3 3 2 2 2 2 3 3 4 3 3 3 3 1 1 3 2 2 3 5 5 4 5 5 4 6 8 8 7 6 6 6 7 10 13 16 19 21 21 22 22 22 23 23 23 23 24 24 24 24 24 24 24 24 24 24 24 24 24 24 24 24 24 24 24 23 22 21 20 19 17
6 5 5 4 3 3 4 4 4 5 5 5 5 4 4 4 3 3 2 2 2 2 3 4 4 4 3 3 1 1 2 2 1 3 5 5 4 4 5 4 5 7 8 6 6 5 6 6 8 12 17 19 21 22 22 23 23 23 23 23 23 23 23 23 24 24 24 24 24 24 24 24 24 24 24 24 24 25 25 24 24 23 23 22 21 20
6 5 5 4 4 4 4 4 4 4 5 5 5 4 4 4 4 3 3 2 2 3 3 4 4 4 3 3 1 1 2 1 1 3 4 4 4 4 4 4 5 7 9 6 5 5 5 6 6 8 13 18 20 22 23 23 23 23 23 23 22 23 23 23 23 23 23 23 23 23 23 23 24 24 24 24 24 24 24 24 24 24 23 22 21 21
5 4 3 3 4 4 4 4 4 5 5 5 5 4 4 4 4 4 3 3 3 4 4 4 4 4 3 3 2 1 2 1 1 2 4 4 4 4 4 3 4 7 8 6 5 5 5 5 6 9 15 19 21 22 22 23 23 23 23 23 23 22 22 23 23 23 23 23 23 23 23 23 23 23 23 24 24 24 24 24 24 23 23 22 21 21
4 3 3 3 3 3 3 4 4 4 4 4 4 3 3 4 4 4 4 4 4 5 6 6 5 4 4 4 3 2 3 2 1 1 4 4 4 3 4 3 4 6 7 5 5 5 5 5 6 9 15 20 22 22 22 23 23 23 23 23 23 22 22 22 22 22 22 22 22 22 22 23 23 23 23 23 23 23 23 23 23 23 22 21 21 20
3 3 3 3 3 3 4 4 4 4 3 3 3 3 3 4 4 4 4 5 5 6 6 6 6 5 5 4 4 3 3 3 2 1 4 5 3 2 3 2 4 6 6 5 4 4 5 6 6 7 10 17 21 22 22 22 23 23 23 23 23 23 22 22 22 22 22 22 22 22 22 22 22 22 23 23 23 23 23 23 22 22 22 21 20 20
3 3 3 4 4 5 5 6 6 6 5 4 4 4 5 7 7 7 6 6 6 6 6 7 6 5 4 4 3 3 3 3 2 2 4 4 3 2 2 2 3 5 5 4 4 4 5 6 6 6 7 12 17 21 22 22 23 23 23 23 23 23 23 22 22 22 21 21 21 21 21 21 22 22 22 23 23 23 23 22 22 21 21 20 20 19
5 5 6 7 9 10 11 11 11 11 9 7 6 6 6 7 8 7 6 5 5 6 7 7 6 4 3 2 2 2 2 3 3 2 3 4 4 2 2 2 3 5 5 4 4 4 5 6 6 6 6 8 13 19 21 22 23 23 23 23 23 23 23 22 22 21 21 20 20 20 20 21 21 21 22 22 22 22 22 21 21 20 19 18 18 18
9 10 12 13 14 15 16 17 16 15 14 12 10 8 7 7 8 7 6 5 5 6 7 7 6 4 3 3 2 2 2 2 3 2 2 5 5 4 1 2 3 4 5 4 4 5 7 6 6 6 5 5 9 14 20 21 22 23 23 23 23 23 22 22 21 20 20 20 19 19 20 20 20 20 21 21 21 21 21 20 19 18 17 15 14 14
13 13 14 15 16 17 18 19 18 17 16 15 14 12 8 7 7 7 7 6 5 6 6 7 6 5 3 3 2 2 2 2 2 2 1 4 5 4 2 2 3 4 5 4 4 5 7 6 6 6 5 5 6 10 15 19 21 22 23 23 23 22 22 21 20 20 19 19 18 19 19 19 19 19 20 20 20 19 19 19 18 16 14 11 9 8
12 14 15 15 16 17 19 18 18 17 17 15 13 10 6 5 5 6 6 6 5 6 6 6 6 5 4 4 3 2 2 2 2 2 1 3 4 4 3 3 3 3 4 3 3 4 6 5 5 5 5 6 6 7 9 13 15 17 19 21 21 21 21 20 20 19 19 18 18 18 18 18 18 19 18 18 18 18 18 17 16 13 10 9 7 6
9 10 11 11 12 13 14 13 14 15 15 14 11 8 4 3 3 4 4 4 5 6 6 6 6 6 6 5 4 3 2 1 1 2 1 3 4 4 4 4 2 2 2 3 3 3 4 4 4 5 5 6 7 6 7 8 9 10 12 15 17 18 20 20 19 19 18 18 18 18 18 18 18 18 18 18 17 17 17 16 13 10 7 7 7 6
6 7 7 7 8 8 8 9 9 10 12 12 10 8 5 4 3 3 3 3 4 5 6 7 7 7 6 5 5 3 2 1 1 1 1 2 3 4 4 4 2 0 0 2 3 3 3 2 3 4 5 6 6 6 7 6 6 6 7 8 11 13 17 17 17 17 17 18 18 18 18 18 18 18 18 17 17 17 16 15 12 9 6 6 6 6
5 6 6 6 6 7 7 7 7 7 8 8 8 7 6 5 5 4 3 3 3 4 5 6 6 6 4 4 4 4 3 2 2 1 1 2 3 3 3 3 2 0 1 1 2 4 4 2 1 2 4 4 5 5 6 6 6 6 6 6 7 9 13 13 13 14 14 16 17 18 18 18 18 18 18 17 17 16 16 15 12 9 6 6 6 7
6 5 5 6 6 7 7 7 6 6 6 6 6 6 5 6 6 5 4 4 3 4 4 5 5 4 3 3 3 3 3 3 2 2 1 2 3 3 2 2 2 1 1 2 3 3 4 4 3 2 3 3 4 4 5 6 6 6 6 6 6 7 9 9 9 10 10 11 13 14 15 16 17 17 17 17 17 16 16 15 13 11 8 6 6 6
7 6 6 7 7 7 7 7 7 6 6 6 6 5 5 5 6 6 6 5 4 4 3 3 4 4 4 4 4 4 3 3 2 2 1 2 3 3 3 3 2 2 2 3 3 4 5 5 4 4 3 3 3 4 4 5 5 5 5 5 5 5 6 6 6 7 7 7 8 8 10 11 13 14 15 16 16 16 16 16 15 13 11 8 6 6
7 7 7 7 7 7 7 7 7 6 6 6 6 6 6 6 6 6 6 6 5 5 4 3 3 2 3 4 5 5 4 3 3 2 2 2 3 3 3 2 2 3 3 3 4 4 4 5 5 5 4 3 3 3 3 3 4 5 5 5 5 5 5 5 5 5 6 6 6 6 6 7 8 9 11 13 14 15 16 16 15 14 13 11 9 7
7 7 6 6 7 7 7 7 6 6 6 5 5 5 6 6 6 6 5 5 6 6 6 5 4 3 3 4 5 6 6 4 4 3 3 2 2 3 3 2 2 3 4 4 5 5 5 5 5 6 6 4 3 2 2 3 4 5 5 6 5 5 5 5 5 5 5 6 6 6 5 6 6 7 8 12 14 14 15 15 15 15 14 13 12 10
7 7 6 6 6 6 6 5 5 5 5 5 5 5 6 6 6 6 6 6 6 6 6 7 7 7 7 6 6 6 6 5 4 4 4 3 2 3 3 2 2 2 3 5 6 6 6 6 5 5 5 4 3 3 2 2 3 5 5 5 5 5 5 5 5 5 5 6 6 6 6 6 6 6 7 11 12 12 13 14 14 14 14 14 13 13
7 6 6 5 5 5 5 5 5 5 4 5 5 6 7 7 7 7 6 7 7 7 7 7 8 10 13 12 10 9 7 7 6 6 5 4 3 3 4 3 2 2 3 4 5 6 7 7 6 5 3 3 4 4 4 3 4 5 5 5 5 5 5 4 4 4 5 5 6 6 6 6 5 5 6 7 7 7 8 8 9 10 11 12 13 14
6 6 5 5 5 5 5 5 5 5 5 5 6 6 7 8 8 8 7 7 7 8 8 8 8 9 12 12 12 11 10 8 8 7 6 5 4 4 4 4 3 3 3 3 4 5 6 6 6 5 5 4 4 4 4 4 4 5 4 4 5 5 5 5 4 4 4 5 6 6 5 5 5 5 5 4 4 5 5 4 5 6 6 6 8 10
6 6 6 6 5 5 5 5 5 5 5 6 6 7 7 7 7 7 7 7 7 8 9 9 9 9 10 10 11 11 10 8 8 7 6 5 4 4 4 4 4 4 3 3 3 3 4 5 5 6 6 6 5 4 4 4 4 5 5 4 3 4 4 4 4 4 4 4 4 5 4 4 4 5 5 4 4 4 3 3 3 4 4 4 4 5
6 6 6 5 5 5 5 5 5 5 5 5 6 6 6 6 6 6 6 6 6 6 7 8 9 9 10 10 10 10 10 9 8 8 6 6 6 5 4 4 4 4 4 4 4 4 4 5 5 6 5 6 6 6 6 5 5 5 5 4 3 3 3 4 4 4 3 4 4 4 5 5 5 5 5 5 4 4 3 3 3 3 3 3 3 3
7 7 6 5 5 5 5 5 5 6 6 5 5 5 5 4 5 5 5 5 5 5 5 6 7 9 9 9 9 9 10 9 9 9 8 8 7 7 5 5 4 4 4 5 5 5 5 5 6 6 6 6 6 6 5 5 5 6 6 5 5 5 4 4 4 3 4 4 4 4 5 5 4 4 4 4 4 3 4 4 4 5 4 3 2 2
7 6 6 5 5 5 6 6 6 6 5 5 5 5 4 4 4 4 5 5 5 5 5 5 6 8 9 8 8 8 8 9 10 10 9 9 8 7 6 6 5 4 4 5 5 5 5 6 6 5 5 5 6 7 7 6 5 5 5 5 5 4 3 2 2 2 3 4 4 4 4 4 3 3 4 4 3 3 4 5 6 6 5 3 2 2
6 6 5 5 5 5 5 5 5 5 6 6 6 5 4 4 4 4 5 5 5 5 5 5 6 7 9 8 8 7 7 8 9 10 10 11 10 9 7 7 6 5 4 4 5 5 5 5 5 4 3 4 5 6 6 6 5 4 3 3 4 4 3 2 1 2 3 3 3 3 3 2 2 3 4 4 4 3 4 4 4 4 4 3 3 3
7 6 5 5 5 5 5 6 6 6 6 6 6 5 4 4 4 4 4 5 5 5 4 4 5 6 7 7 6 6 5 6 7 8 9 11 12 11 9 8 7 7 6 5 4 4 5 5 5 4 4 4 5 6 6 6 5 5 4 4 5 5 4 3 2 3 3 3 3 2 2 2 2 3 4 4 4 4 4 4 4 4 4 3 3 3
6 6 5 5 5 6 6 6 6 6 6 6 6 5 4 4 4 4 5 5 5 4 4 3 4 5 6 6 5 5 5 5 5 6 6 8 9 9 9 9 8 8 7 7 6 5 5 5 5 5 5 5 5 5 5 5 5 5 4 5 5 5 4 4 3 3 3 3 2 2 2 2 2 3 4 3 4 4 4 4 4 4 4 3 3 3
7 6 6 5 5 6 6 6 6 7 7 7 6 5 4 4 4 4 4 5 5 5 5 5 5 6 7 6 5 5 6 6 5 5 5 6 7 7 8 8 9 9 9 8 8 8 7 6 5 4 5 6 5 5 4 4 5 5 4 4 5 4 4 3 3 2 2 2 2 2 2 2 3 3 3 3 3 3 4 4 4 4 3 3 3 3
7 7 6 6 6 6 6 6 6 7 7 7 6 5 5 5 5 5 5 4 5 5 5 6 6 7 8 6 6 6 7 7 6 5 5 5 6 6 6 7 7 8 9 10 10 10 9 9 8 6 4 4 5 5 4 4 4 4 4 4 4 5 4 3 2 2 2 2 2 2 2 2 3 3 3 3 3 3 3 3 3 3 3 3 3 3
6 6 6 6 6 6 6 6 6 7 7 7 6 5 5 6 7 7 5 4 4 5 5 6 7 7 7 6 6 6 7 6 6 5 5 5 4 5 5 5 6 7 7 8 8 9 9 10 11 10 8 6 5 5 5 4 4 4 3 3 4 4 4 3 2 2 2 3 2 2 2 2 2 2 3 3 3 3 2 2 3 3 3 2 2 2
6 6 6 6 6 6 6 6 6 7 7 7 6 6 5 5 5 5 5 5 5 5 5 6 7 7 7 7 6 6 6 6 5 4 4 3 3 3 3 4 5 5 6 5 5 5 6 7 9 11 12 10 8 6 5 5 4 4 4 3 3 3 3 3 2 2 2 2 2 3 3 2 2 2 3 3 3 2 2 2 2 3 3 3 3 3
6 6 6 6 6 6 6 6 6 7 7 6 6 6 5 5 5 5 5 6 6 6 6 6 7 7 8 7 6 6 6 5 5 4 3 2 2 2 2 2 3 4 4 3 3 3 3 3 4 6 9 11 10 7 4 4 4 4 4 2 2 2 2 2 1 2 2 2 2 2 3 3 2 2 2 3 3 3 2 2 2 3 3 3 3 3
Wind_Direction
262 265 265 237 229 227 220 181 185 235 269 278 287 294 301 305 307 309 310 304 292 276 256 240 224 211 207 211 213 214 215 216 217 218 217 215 213 211 210 210 210 210 211 211 211 212 212 212 212 210 209 208 208 210 209 208 207 207 207 208 208 209 210 210 211 211 212 212 213 213 213 212 211 211 211 213 216 219 222 224 224 224 222 222 222 223
263 264 262 234 225 225 228 173 161 184 239 263 277 289 298 299 301 304 308 303 294 283 268 251 235 218 206 209 211 212 213 214 216 218 219 218 215 213 210 209 209 209 210 210 211 211 212 214 215 216 217 218 219 219 218 214 210 208 207 208 209 209 210 210 210 211 211 212 213 213 214 213 213 213 214 217 220 222 223 223 222 221 220 220 222 224
263 260 252 239 233 233 233 191 166 168 190 219 251 281 296 295 298 304 311 311 304 294 281 262 245 228 215 210 211 212 212 213 215 217 220 220 219 216 213 211 209 209 209 209 210 210 212 215 217 220 223 224 224 224 222 217 212 209 208 208 209 209 209 209 209 210 210 211 212 213 214 214 215 217 219 222 223 223 222 220 218 217 217 219 220 222
259 253 242 240 245 247 244 224 195 182 181 187 200 244 294 297 301 309 319 318 313 306 296 279 258 238 222 216 213 212 211 211 214 217 220 222 221 220 217 214 211 210 209 209 209 209 210 212 215 219 221 222 222 221 220 216 212 209 208 208 209 209 209 209 209 209 209 209 210 211 212 214 216 218 220 222 222 221 218 216 214 214 215 217 219 221
253 245 232 226 240 254 267 267 255 225 189 180 175 166 60 326 321 326 334 336 330 324 318 307 287 259 229 218 214 212 211 212 214 216 219 221 223 222 221 217 215 212 210 208 206 205 206 207 210 213 216 217 217 216 215 212 210 208 207 208 208 209 209 209 208 208 207 207 208 209 210 212 214 216 217 218 217 216 214 212 212 213 214 216 218 219
255 240 229 222 230 243 263 268 265 253 223 186 157 127 90 19 1 4 5 2 354 343 333 325 317 309 299 264 217 213 213 214 215 216 218 220 222 224 224 222 219 216 213 210 206 203 203 203 206 210 213 214 215 214 212 209 207 206 205 206 207 207 208 208 208 207 206 206 206 206 207 208 210 211 211 212 211 210 210 210 211 212 214 215 216 218
265 248 243 243 243 244 244 249 247 236 221 196 154 119 121 74 48 47 42 29 13 355 339 327 322 324 333 347 356 295 224 219 217 216 216 218 220 222 223 223 223 222 220 218 215 212 210 209 211 214 216 216 215 214 211 207 204 202 202 202 203 205 206 206 206 206 205 204 203 203 204 205 205 206 207 207 208 208 209 210 211 212 213 215 216 217
265 253 239 238 239 240 237 239 237 231 221 194 161 152 204 212 116 80 69 53 38 16 352 336 329 328 332 347 5 23 25 14 261 226 218 217 217 219 220 222 224 225 225 225 225 224 223 222 221 221 221 219 217 214 211 206 202 200 198 199 200 201 202 203 203 203 203 202 201 201 201 201 202 203 204 206 207 208 210 211 211 212 213 214 216 217
257 248 233 224 216 209 206 217 230 236 232 214 185 173 198 202 182 116 80 63 51 38 19 355 342 336 334 343 355 10 25 38 41 39 30 232 220 218 218 220 222 225 227 227 227 227 227 225 224 223 221 219 216 213 210 206 202 199 197 197 197 198 199 200 201 201 201 201 201 200 200 200 200 201 203 205 207 208 210 211 212 212 213 214 216 217
252 244 232 226 220 208 185 185 206 227 232 218 210 215 229 214 192 153 104 78 63 53 49 26 1 344 334 338 345 356 11 33 44 46 41 36 34 31 217 216 219 221 221 221 222 222 221 219 218 217 216 215 214 212 210 207 204 201 199 198 198 198 199 200 200 201 202 202 203 202 202 201 201 201 202 204 206 208 210 211 212 213 213 214 215 217
252 242 228 227 232 234 203 175 177 191 198 168 138 301 280 256 222 177 139 121 97 73 66 52 27 358 337 336 339 347 360 24 40 43 40 38 38 41 45 52 70 126 149 170 181 189 198 203 205 207 208 210 210 210 210 208 206 204 202 201 201 201 201 202 202 203 204 204 205 205 204 203 202 202 202 204 206 208 210 211 212 212 213 213 214 215
248 238 221 219 227 232 218 179 158 160 164 146 141 199 276 272 252 213 149 136 122 103 85 70 50 25 357 340 335 339 354 22 41 46 42 38 38 40 45 47 50 55 63 64 63 63 69 88 135 178 192 199 202 204 206 207 206 205 205 205 205 206 206 205 205 204 204 204 204 204 203 203 202 202 203 204 206 207 209 210 211 212 211 211 212 212
238 219 209 217 221 216 198 170 160 165 175 171 175 188 214 251 255 238 140 126 118 112 103 86 65 40 14 352 339 337 347 12 37 51 51 42 37 37 47 52 53 53 56 56 53 51 52 56 62 73 91 127 158 174 183 188 192 195 199 201 206 209 209 208 207 206 204 203 202 201 201 201 201 202 203 204 205 206 208 209 209 209 208 208 208 209
232 215 213 223 225 220 205 186 181 182 188 183 178 176 181 221 236 217 119 111 110 109 104 93 79 56 24 3 348 341 338 355 29 51 54 44 34 31 47 61 60 58 59 59 55 51 50 55 58 62 65 74 87 99 101 109 112 112 111 116 127 153 178 200 203 202 200 201 200 199 199 199 199 200 201 202 203 204 204 205 205 205 204 204 205 206
226 216 222 224 221 215 208 202 197 194 186 170 152 142 143 180 197 178 124 118 118 114 103 94 85 70 38 10 352 344 337 348 29 56 59 45 29 22 40 63 66 62 60 60 57 53 52 58 62 66 68 75 81 86 88 90 90 89 89 87 85 85 85 83 87 95 106 129 150 166 177 182 188 194 197 201 202 203 203 203 203 203 203 203 204 206
222 217 223 225 222 214 205 205 202 193 170 153 145 146 152 171 183 177 139 133 130 124 112 103 94 80 46 5 349 346 342 354 26 57 65 49 26 13 27 63 69 66 61 60 58 54 52 58 64 69 74 79 83 85 87 89 90 89 88 88 87 85 83 81 79 77 75 75 75 76 79 82 86 92 110 137 168 187 198 200 200 200 200 200 200 201
226 223 225 227 226 219 204 201 195 180 157 156 158 161 163 169 173 168 149 142 135 128 122 118 113 109 96 358 340 342 343 352 17 50 66 54 28 9 14 55 71 71 64 60 56 54 56 61 65 70 75 79 82 84 85 87 88 88 88 88 87 86 84 83 81 79 77 75 74 72 73 72 71 70 69 66 66 68 68 79 99 129 153 163 167 167
226 224 225 227 225 217 194 192 186 171 159 161 163 163 159 157 156 155 153 148 138 130 123 116 117 122 130 135 318 327 335 347 21 56 65 57 31 6 6 44 68 73 68 60 53 51 55 61 65 70 77 80 81 82 84 85 86 86 87 87 87 86 85 84 83 81 80 79 77 76 75 74 73 72 71 69 68 66 64 64 64 64 68 68 74 83
227 222 221 223 218 206 188 187 183 177 171 168 163 155 145 142 142 146 152 145 135 127 120 110 106 107 115 125 152 303 326 333 29 69 70 60 34 9 0 36 63 70 68 58 50 46 51 59 65 71 76 79 80 81 82 83 84 84 85 86 86 86 86 86 85 85 84 83 81 80 79 78 76 75 74 73 72 70 69 67 66 65 64 64 65 67
227 223 218 214 205 195 192 192 186 180 175 167 158 150 146 144 144 144 147 126 105 98 101 104 103 103 106 113 113 315 324 325 56 82 78 66 41 13 1 29 59 69 66 54 42 38 48 57 65 71 75 77 79 81 82 82 82 83 83 84 85 86 86 87 87 86 86 85 84 83 82 81 80 78 77 76 75 73 72 71 69 68 66 65 64 64
228 225 214 198 188 188 193 189 182 174 167 155 148 144 146 144 143 141 133 113 99 93 94 97 99 102 105 106 95 334 324 327 90 100 89 71 46 19 0 21 53 66 65 52 36 30 42 55 62 68 72 76 78 80 81 81 82 82 82 82 83 83 84 85 85 86 86 86 85 85 84 83 82 81 81 79 78 77 76 74 73 71 70 68 67 66
223 219 200 183 181 182 179 168 162 158 153 150 150 151 152 149 146 141 131 121 112 106 99 97 98 98 99 98 89 26 346 346 78 110 101 81 54 21 352 10 47 63 63 49 34 27 35 50 61 69 73 76 77 79 80 81 81 81 81 81 81 81 82 83 84 84 85 85 85 85 85 84 84 83 83 82 81 80 79 78 77 76 74 73 71 70
208 191 168 169 170 166 154 147 143 141 140 142 145 148 145 141 138 133 128 120 112 106 102 101 100 96 91 87 74 49 20 3 6 86 96 88 69 26 344 7 46 61 60 47 35 31 36 44 55 67 74 75 76 78 79 80 81 81 81 81 80 80 80 81 81 82 83 83 84 84 85 85 85 84 84 84 83 82 82 81 80 79 78 77 76 74
174 156 151 153 151 148 143 139 135 127 117 107 97 87 85 91 94 96 97 102 105 108 110 108 102 92 82 77 66 48 21 359 356 56 93 91 81 40 340 10 56 67 62 48 39 38 44 45 46 55 69 73 75 76 78 80 81 81 81 81 80 79 79 79 79 79 80 81 82 83 84 85 85 85 85 85 85 84 83 83 83 82 81 80 79 78
140 140 142 145 147 147 144 136 127 119 110 102 95 90 88 88 88 89 91 98 106 112 115 109 103 97 89 79 66 45 11 352 356 49 98 98 88 54 349 17 64 76 70 52 42 44 53 50 44 44 56 69 73 75 77 78 79 80 81 80 80 79 78 78 77 77 78 79 80 82 83 84 85 86 86 86 86 86 86 85 85 84 83 83 82 81
133 136 140 142 142 139 133 126 121 118 116 113 112 110 108 105 103 102 104 111 119 123 120 113 109 105 98 84 68 43 3 350 358 34 96 105 102 82 8 26 69 82 80 61 47 47 55 53 47 42 43 61 71 75 76 77 78 78 79 79 79 79 78 78 77 77 78 79 80 81 83 84 84 85 86 86 87 87 87 86 86 85 84 84 83 82
133 134 136 137 136 131 125 120 117 117 117 118 119 121 122 119 117 117 122 134 139 134 126 121 118 112 98 84 68 42 4 0 4 23 76 104 106 100 67 68 83 88 86 71 56 52 56 53 47 42 40 48 65 73 75 76 76 77 77 77 77 78 78 78 78 78 78 79 80 81 82 83 84 85 85 86 86 87 86 86 85 84 83 82 82 82
130 131 132 131 129 124 119 117 117 118 119 121 124 127 129 128 128 132 142 149 145 136 128 128 127 123 110 99 83 53 21 21 9 6 38 96 103 106 119 112 102 97 94 83 66 56 55 50 44 40 39 41 55 68 74 74 75 75 75 76 76 77 77 78 78 79 79 80 80 81 82 82 83 83 84 84 85 85 85 84 83 82 79 78 77 77
115 119 121 120 118 115 112 113 116 119 121 122 125 127 129 130 134 140 147 148 143 135 130 129 127 123 116 110 97 71 41 27 359 344 354 90 103 114 134 134 125 111 105 99 81 61 50 43 37 34 35 41 47 57 66 69 72 74 75 75 76 76 77 78 78 79 79 80 80 81 81 81 81 82 82 82 83 83 83 83 82 80 76 75 73 73
92 97 100 100 100 100 101 105 109 112 114 113 112 109 98 96 111 125 136 140 139 135 132 128 126 124 123 117 106 89 56 357 330 333 358 96 113 126 139 137 136 133 125 117 100 76 54 36 27 27 31 42 47 51 55 58 62 68 72 75 75 76 76 77 78 78 79 79 79 80 80 80 80 80 80 80 80 81 81 81 80 78 75 76 74 72
79 78 76 74 73 73 75 80 87 93 95 93 89 82 71 68 73 85 99 117 128 131 132 131 132 134 137 132 128 127 141 202 247 312 24 100 119 132 138 132 132 164 239 133 121 111 92 42 17 18 28 42 48 50 51 53 55 60 66 72 74 75 75 76 76 77 77 77 77 78 78 79 79 79 79 79 79 79 79 79 78 77 77 77 76 73
84 80 77 72 68 65 65 67 69 72 74 73 71 68 65 64 63 64 66 80 102 119 128 131 134 137 139 132 129 133 143 163 181 196 158 109 112 121 127 120 112 52 321 53 114 121 120 108 56 21 31 44 48 48 48 52 54 57 64 69 72 74 73 74 74 74 74 74 74 75 75 76 77 78 79 79 79 78 78 77 77 77 77 79 78 76
85 80 77 74 72 70 67 67 66 66 66 66 66 65 63 62 61 60 58 62 78 100 120 128 129 127 116 101 99 105 116 130 153 176 171 118 111 113 114 108 105 92 46 43 67 90 104 113 114 89 57 52 50 48 48 51 54 57 62 68 71 72 71 71 71 71 70 70 69 69 70 72 74 75 77 77 78 78 77 77 76 76 77 79 80 79
85 80 76 75 73 70 68 66 65 65 65 66 66 67 65 63 61 59 58 57 60 68 85 104 116 122 121 112 104 99 100 113 135 152 146 113 113 117 120 115 116 115 101 79 74 78 88 103 111 110 91 68 55 51 50 54 56 58 61 67 70 71 69 69 70 71 69 66 64 62 60 64 67 70 73 75 76 77 78 77 77 77 78 79 81 81
84 79 75 74 73 72 70 68 67 66 65 66 66 68 69 67 65 63 62 61 61 61 60 63 75 101 122 125 123 120 117 120 128 128 97 104 115 119 119 119 125 124 113 107 102 98 98 103 108 111 109 94 72 55 50 57 62 64 64 66 68 68 66 68 72 74 72 68 65 59 54 55 58 62 67 71 74 76 78 78 79 79 80 81 82 83
85 80 75 74 75 76 75 73 71 70 69 67 68 69 72 71 70 68 66 67 69 69 68 63 57 56 66 99 113 118 122 121 114 98 73 81 103 114 113 117 124 124 116 115 114 114 114 112 110 109 108 105 95 76 57 61 67 69 66 64 64 63 61 62 68 73 74 71 67 61 56 55 55 58 63 67 70 73 75 77 78 80 81 82 83 84
89 83 77 76 79 81 82 79 76 75 74 72 72 73 75 75 74 72 69 69 71 72 73 69 65 62 60 68 82 94 104 102 91 75 58 56 72 94 106 109 109 111 113 120 122 122 121 119 115 108 99 100 104 108 102 83 74 71 67 63 61 59 55 55 61 68 75 74 71 67 61 59 58 58 61 64 65 66 68 70 72 75 79 81 82 83
91 87 82 80 82 85 87 84 80 78 78 79 79 79 78 78 77 75 73 71 72 74 76 73 71 69 67 71 73 76 80 78 74 67 58 56 64 82 100 100 90 79 90 114 123 127 127 127 124 118 103 97 101 107 112 102 88 80 74 67 61 57 50 47 52 61 71 75 75 71 66 62 60 60 60 59 58 58 59 57 58 63 71 75 78 79
93 91 87 84 83 85 87 86 84 83 82 83 84 84 83 81 79 77 75 74 74 74 77 78 77 73 69 69 68 67 67 65 62 61 59 58 64 78 94 97 91 79 73 88 105 117 124 126 127 126 122 114 107 102 97 94 94 94 91 76 63 53 44 39 41 49 61 71 75 73 66 62 61 62 59 55 56 58 58 53 49 49 54 62 71 74
95 92 89 85 84 84 86 87 89 89 89 88 88 87 85 84 82 79 78 77 78 79 80 80 78 74 69 65 61 59 57 56 54 53 55 54 59 70 83 91 93 91 82 75 75 84 99 107 112 115 118 119 118 114 104 100 103 107 104 89 69 51 40 36 35 38 48 63 73 75 71 66 65 65 62 58 56 57 58 55 50 47 48 56 68 72
96 93 91 89 86 84 84 86 88 89 90 90 87 84 84 87 88 88 85 83 82 82 83 82 80 75 69 63 59 55 53 52 51 51 53 55 60 67 75 83 89 92 88 76 68 68 80 95 101 104 106 111 112 111 109 109 109 107 99 94 88 78 56 44 38 37 47 57 66 74 79 75 70 67 65 61 55 51 53 66 64 57 49 54 68 82
97 95 95 96 93 91 89 90 89 87 86 84 82 81 82 87 93 96 97 92 89 86 86 87 85 82 75 66 59 54 51 50 51 51 53 55 59 65 72 76 81 88 91 85 78 73 76 89 99 106 112 115 115 113 109 104 100 98 97 104 106 98 73 46 31 31 51 54 57 63 74 74 72 68 68 64 55 44 43 54 61 62 59 49 52 70
97 97 98 98 98 99 99 95 91 87 84 79 76 73 72 78 88 96 99 96 94 92 88 88 89 88 85 76 67 59 53 51 51 52 53 53 55 59 66 67 71 80 91 93 88 81 77 81 88 96 107 114 116 115 113 107 100 97 101 112 114 109 89 37 13 24 54 57 56 56 62 69 74 74 71 66 56 46 40 49 53 55 57 58 56 55
101 99 98 98 98 97 94 90 88 87 84 81 78 75 70 75 85 92 95 95 94 93 91 91 90 88 85 83 78 71 62 56 53 52 52 53 54 57 60 58 56 57 66 86 96 99 92 84 82 82 86 98 105 108 109 107 103 95 82 82 85 91 102 114 100 71 64 59 52 46 45 57 68 70 66 58 50 44 42 45 44 43 44 47 53 58
105 103 101 100 98 95 91 90 89 88 86 83 81 78 76 77 82 88 93 95 94 93 94 97 95 90 85 84 83 80 74 64 57 53 52 52 54 56 59 59 57 55 55 62 78 96 105 104 100 93 84 87 91 98 103 105 103 95 82 74 73 77 84 90 90 86 80 68 50 29 10 23 55 67 64 56 50 44 42 44 44 42 36 37 43 50
105 104 101 99 96 93 93 93 92 91 87 83 80 79 78 78 80 85 89 93 92 89 84 84 88 91 93 92 90 86 82 73 64 58 55 52 52 54 57 60 62 63 63 59 59 63 78 96 106 108 100 91 84 82 87 98 101 100 95 91 89 86 79 66 59 60 69 71 51 12 346 15 52 68 71 66 58 51 45 47 47 44 37 37 41 45
102 102 101 100 97 94 93 94 93 92 89 85 82 79 77 78 80 81 82 84 86 87 82 78 82 86 90 91 91 90 89 84 77 70 65 62 61 61 63 64 66 68 71 70 66 62 58 61 72 90 106 103 96 84 74 82 93 101 105 103 99 94 82 63 45 36 41 55 36 359 345 36 63 76 84 79 68 57 47 46 45 45 40 39 40 40
99 100 101 100 98 95 93 92 92 91 90 88 85 81 76 77 78 80 80 79 82 86 87 84 85 85 85 82 83 86 90 90 87 82 78 76 74 73 73 74 75 74 74 74 72 69 63 56 52 53 69 93 104 105 95 86 88 96 103 103 100 95 88 75 51 33 38 42 27 10 20 63 85 98 100 85 72 59 46 37 34 33 31 31 32 32
92 94 96 96 94 93 90 89 90 90 91 92 89 84 76 75 76 77 79 78 80 83 86 88 89 89 86 83 82 83 87 89 89 87 85 86 87 87 86 87 88 86 82 77 73 70 66 61 55 51 49 62 85 103 106 97 90 86 84 86 90 93 94 83 61 44 46 43 35 30 43 66 90 104 104 92 83 70 47 29 20 15 10 10 17 21
84 86 88 89 89 88 88 87 87 87 89 89 89 87 82 75 71 70 73 75 76 78 81 86 89 91 90 88 87 86 88 90 89 87 83 85 88 92 94 99 101 99 94 81 70 65 64 61 56 52 49 53 63 83 105 105 100 90 77 71 75 85 95 86 66 45 48 50 48 48 56 58 62 72 84 90 86 74 46 27 13 3 354 353 359 5
82 81 82 83 84 85 86 86 86 85 85 86 87 87 86 82 77 74 73 75 77 78 78 81 86 90 93 92 90 88 89 91 91 87 77 70 68 70 71 86 101 106 104 89 69 54 55 62 57 49 44 44 47 57 105 114 111 103 89 73 62 68 84 82 66 45 47 51 52 54 59 57 52 55 75 88 85 71 48 29 6 349 339 342 348 355